www.pogodaiklimat.ru
ПОГОДА в Майрхофене
Время
(UTC), дата
07 11.10
08 11.10
09 11.10
10 11.10
11 11.10
12 11.10
13 11.10
14 11.10
15 11.10
16 11.10
17 11.10
18 11.10
19 11.10
20 11.10
21 11.10
22 11.10
23 11.10
00 12.10
01 12.10
02 12.10
03 12.10
04 12.10
05 12.10
06 12.10
07 12.10
08 12.10
09 12.10
10 12.10
11 12.10
12 12.10
13 12.10
14 12.10
15 12.10
16 12.10
17 12.10
18 12.10
19 12.10
20 12.10
21 12.10
22 12.10
23 12.10
00 13.10
01 13.10
02 13.10
03 13.10
04 13.10
05 13.10
06 13.10
07 13.10
08 13.10
09 13.10
10 13.10
11 13.10
12 13.10
13 13.10
14 13.10
15 13.10
16 13.10
17 13.10
18 13.10
19 13.10
20 13.10
21 13.10
22 13.10
23 13.10
00 14.10
01 14.10
02 14.10
03 14.10
04 14.10
05 14.10
06 14.10
07 14.10
08 14.10
09 14.10
10 14.10
11 14.10
12 14.10
13 14.10
14 14.10
15 14.10
16 14.10
17 14.10
18 14.10
19 14.10
20 14.10
21 14.10
22 14.10
23 14.10
00 15.10
01 15.10
02 15.10
03 15.10
04 15.10
05 15.10
06 15.10
07 15.10
08 15.10
09 15.10
10 15.10
11 15.10
12 15.10
13 15.10
14 15.10
15 15.10
16 15.10
17 15.10
18 15.10
19 15.10
20 15.10
21 15.10
22 15.10
23 15.10
00 16.10
01 16.10
02 16.10
03 16.10
04 16.10
05 16.10
06 16.10
07 16.10
08 16.10
09 16.10
10 16.10
11 16.10
12 16.10
13 16.10
14 16.10
15 16.10
16 16.10
17 16.10
18 16.10
19 16.10
20 16.10
21 16.10
22 16.10
23 16.10
00 17.10
01 17.10
02 17.10
03 17.10
04 17.10
05 17.10
06 17.10
07 17.10
08 17.10
09 17.10
10 17.10
11 17.10
12 17.10
13 17.10
14 17.10
15 17.10
16 17.10
17 17.10
18 17.10
19 17.10
20 17.10
21 17.10
22 17.10
23 17.10
00 18.10
01 18.10
02 18.10
03 18.10
05 18.10
Ветер
(напр.,м/с)
Видим. Явления Облачность Т
(С)
Тd
(С)
f
(%)
Тe
(С)
Тes
(С)
Комфортность P
(гПа)
Po
(гПа)
Тmin
(С)
Tmax
(С)
R
(мм)
R24
(мм)
S
(см)
С 1 н/о н/о +4.0 +3.2 95 +2 +2 по сезону 1027.3 950.0
штиль 0 н/о н/о +6.8 +5.7 93 +6 +6 тепло 1025.7 949.3
В 1 н/о н/о +9.7 +5.2 74 +9 +9 тепло 1024.7 949.1
СВ 1 н/о н/о +11.2 +5.0 66 +11 +11 тепло 1024.3 949.1
ЮВ 1 н/о н/о +13.2 +6.2 62 +14 +14 тепло 1023.0 948.5
Ю 1 н/о н/о +14.3 +5.6 56 +15 +15 тепло 1021.5 947.3
ЮВ 1 н/о н/о +15.5 +6.6 55 +16 +16 тепло 1019.4 945.7
ЮЗ 1 н/о н/о +16.7 +7.4 54 +18 +18 тепло 1018.4 945.1
ЮЗ 2 н/о н/о +14.8 +7.8 63 +15 +15 тепло 1018.6 944.8
ЮЗ 1 н/о н/о +11.2 +7.6 78 +11 +11 тепло 1019.9 945.1
ЮЗ 1 н/о н/о +9.4 +6.7 83 +9 +9 тепло 1020.8 945.5
ЮЗ 1 н/о н/о +8.9 +6.4 84 +8 +8 тепло 1021.4 945.9 +2.9 +17.0
ЮЗ 1 н/о н/о +8.6 +5.9 83 +8 +8 тепло 1021.8 946.2
штиль 0 н/о н/о +7.8 +5.6 86 +7 +7 тепло 1022.4 946.5
ЮЗ 1 н/о н/о +7.2 +5.5 89 +6 +6 тепло 1022.8 946.7
штиль 0 н/о н/о +6.7 +5.0 89 +6 +6 тепло 1023.1 946.9
штиль 0 н/о н/о +5.8 +4.4 91 +5 +5 тепло 1023.6 947.1
штиль 0 н/о н/о +5.3 +4.2 93 +4 +4 по сезону 1023.6 947.0
штиль 0 н/о н/о +5.4 +4.2 92 +4 +4 по сезону 1023.4 946.8
штиль 0 н/о н/о +4.8 +3.6 92 +4 +4 по сезону 1023.4 946.6
штиль 0 н/о н/о +4.2 +3.1 93 +3 +3 по сезону 1023.6 946.7
Ю 1 н/о н/о +3.9 +2.8 93 +2 +2 по сезону 1023.7 946.7
ЮЗ 1 н/о н/о +3.7 +2.7 93 +2 +2 по сезону 1024.1 947.0
штиль 0 н/о н/о +3.7 +2.8 94 +3 +3 по сезону 1024.2 947.1 +3.3 +9.7 0.0
штиль 0 н/о н/о +4.0 +3.0 93 +3 +3 по сезону 1024.6 947.5
ЮЗ 1 н/о н/о +6.2 +5.3 94 +5 +5 тепло 1024.1 947.7
ЮВ 1 н/о н/о +11.8 +5.4 65 +12 +12 тепло 1022.2 947.4
ЮЗ 1 н/о н/о +13.4 +5.4 58 +14 +14 тепло 1021.4 947.0
Ю 1 н/о н/о +15.5 +5.1 50 +16 +16 тепло 1020.1 946.3 0.0
В 1 н/о н/о +17.5 +6.6 49 +19 +19 тепло 1018.6 945.4 0.0
ЮЗ 1 н/о н/о +17.6 +5.6 45 +19 +19 тепло 1017.9 944.8
ЮЗ 1 н/о н/о +18.0 +5.9 45 +19 +19 тепло 1017.4 944.4
ЮЗ 2 н/о н/о +14.8 +7.2 60 +15 +15 тепло 1018.3 944.5
ЮЗ 1 н/о н/о +12.2 +8.0 75 +12 +12 тепло 1019.3 944.8
ЮЗ 1 н/о н/о +11.6 +8.0 79 +11 +11 тепло 1020.1 945.4
штиль 0 н/о н/о +10.2 +7.6 84 +10 +10 тепло 1020.8 945.7 +3.5 +18.6 0.0
штиль 0 н/о н/о +9.7 +7.0 83 +9 +9 тепло 1021.7 946.4
штиль 0 н/о н/о +8.7 +6.6 87 +8 +8 тепло 1022.3 946.7
штиль 0 н/о н/о +7.8 +6.0 88 +7 +7 тепло 1022.6 946.7
штиль 0 н/о н/о +8.2 +6.0 86 +7 +7 тепло 1022.4 946.6
ЮЗ 1 н/о н/о +7.0 +5.3 89 +6 +6 тепло 1023.1 947.0
штиль 0 н/о н/о +7.2 +5.7 90 +6 +6 тепло 1023.1 947.0
З 1 н/о н/о +6.5 +5.2 91 +5 +5 тепло 1023.1 946.8
штиль 0 н/о н/о +6.4 +5.2 92 +5 +5 тепло 1023.2 946.9
ЮЗ 1 н/о н/о +6.0 +4.8 92 +5 +5 тепло 1023.3 946.9
штиль 0 н/о н/о +5.8 +4.7 93 +5 +5 тепло 1023.4 946.9
штиль 0 н/о н/о +5.4 +4.2 92 +4 +4 по сезону 1023.5 946.9
штиль 0 н/о н/о +5.5 +4.6 94 +4 +4 по сезону 1023.7 947.1 +5.0 +11.1
штиль 0 н/о н/о +5.9 +4.8 93 +5 +5 тепло 1024.0 947.5
штиль 0 н/о н/о +8.4 +6.7 89 +8 +8 тепло 1022.8 947.1
ЮЗ 1 н/о н/о +11.4 +8.1 80 +11 +11 тепло 1021.5 946.7
штиль 0 н/о н/о +14.7 +7.6 62 +15 +15 тепло 1019.6 945.7 0.0
ЮВ 1 н/о н/о +16.8 +8.0 56 +18 +18 тепло 1018.1 944.8
З 1 н/о н/о +17.9 +7.4 50 +19 +19 тепло 1017.5 944.5 0.0
ЮВ 1 н/о н/о +19.3 +8.1 48 +21 +21 комфорт 1016.7 944.1
ЮЗ 2 н/о н/о +19.5 +8.6 49 +21 +21 комфорт 1016.5 944.0
ЮЗ 2 н/о н/о +16.6 +9.8 64 +17 +17 тепло 1017.2 944.0
ЮЗ 1 н/о н/о +14.3 +9.9 75 +15 +15 тепло 1018.0 944.2
ЮЗ 1 н/о н/о +12.1 +9.2 82 +12 +12 тепло 1019.1 944.6
штиль 0 н/о н/о +11.2 +8.6 84 +11 +11 тепло 1020.1 945.3 +5.2 +19.9 0.0
штиль 0 н/о н/о +10.7 +7.8 82 +10 +10 тепло 1020.4 945.5
ЮЗ 1 н/о н/о +10.1 +7.4 83 +10 +10 тепло 1020.7 945.6
штиль 0 н/о н/о +9.6 +7.3 86 +9 +9 тепло 1021.2 945.9
ЮЗ 1 н/о н/о +8.5 +6.8 89 +8 +8 тепло 1022.0 946.4 0.0
штиль 0 н/о н/о +8.1 +6.4 89 +7 +7 тепло 1021.9 946.2
штиль 0 н/о н/о +7.5 +6.0 90 +7 +7 тепло 1022.4 946.5 0.0
ЮЗ 1 н/о н/о +7.2 +5.9 91 +6 +6 тепло 1022.5 946.5
штиль 0 н/о н/о +7.1 +5.9 92 +6 +6 тепло 1022.6 946.5
штиль 0 н/о н/о +7.0 +5.7 91 +6 +6 тепло 1022.5 946.4
ЮЗ 1 н/о н/о +6.5 +5.6 94 +5 +5 тепло 1022.4 946.2
ЮЗ 1 н/о н/о +6.5 +5.2 91 +5 +5 тепло 1022.1 945.9
штиль 0 н/о н/о +6.4 +5.3 93 +5 +5 тепло 1022.0 945.8 +6.1 +11.5 0.0
штиль 0 н/о н/о +7.1 +5.8 91 +6 +6 тепло 1021.7 945.7
штиль 0 н/о н/о +9.2 +7.5 89 +8 +8 тепло 1021.0 945.6
ЮВ 1 н/о н/о +14.3 +8.4 68 +15 +15 тепло 1018.8 944.9
СВ 1 н/о н/о +17.2 +7.9 54 +18 +18 тепло 1017.2 944.1
СВ 1 н/о н/о +19.4 +8.5 49 +21 +21 комфорт 1015.5 943.1
СВ 1 н/о н/о +19.8 +8.9 49 +22 +22 комфорт 1014.3 942.0
В 1 н/о н/о +20.2 +8.9 48 +23 +23 комфорт 1013.3 941.2 0.0
СВ 1 н/о н/о +21.2 +8.7 45 +22 +22 комфорт 1012.7 940.9
ЮЗ 1 н/о н/о +19.4 +12.5 64 +22 +22 комфорт 1012.9 940.7 0.0
ЮЗ 1 н/о н/о +16.2 +11.5 74 +17 +17 тепло 1013.4 940.4
штиль 0 н/о н/о +14.6 +11.0 79 +14 +14 тепло 1014.1 940.7
ЮЗ 1 н/о н/о +13.1 +10.3 83 +13 +13 тепло 1014.6 940.7 +6.4 +21.4 0.0
штиль 0 н/о н/о +12.8 +9.9 83 +12 +12 тепло 1014.1 940.2
штиль 0 н/о н/о +13.5 +8.8 73 +13 +13 тепло 1013.7 940.0
штиль 0 н/о н/о +12.7 +8.6 76 +12 +12 тепло 1013.8 939.9
штиль 0 н/о н/о +13.7 +7.1 64 +13 +13 тепло 1013.4 939.7
штиль 0 н/о н/о +14.8 +6.3 57 +15 +15 тепло 1013.1 939.7
Ю 2 н/о н/о +16.9 +4.5 44 +17 +17 тепло 1012.7 939.8
Ю 1 н/о н/о +14.8 +5.4 53 +15 +15 тепло 1013.4 939.9
штиль 0 н/о н/о +13.5 +5.7 59 +13 +13 тепло 1013.7 939.9
З 1 н/о н/о +11.9 +5.6 65 +12 +12 тепло 1013.9 939.7
З 1 н/о н/о +10.9 +5.7 70 +11 +11 тепло 1013.5 939.1
З 1 н/о н/о +10.8 +5.9 72 +11 +11 тепло 1013.0 938.6
ЮЗ 1 н/о н/о +11.5 +6.0 69 +11 +11 тепло 1012.9 938.7 +10.4 +17.2
ЮЗ 1 н/о н/о +13.3 +6.8 65 +14 +14 тепло 1012.2 938.5 0.0
штиль 0 н/о н/о +14.6 +8.5 67 +14 +14 тепло 1010.9 937.6
ЮЗ 6 н/о осадки н/о +22.2 +5.8 34 +23 +23 комфорт 1008.3 937.0 0.0
ЮЗ 4 н/о н/о +22.2 +6.0 35 +23 +23 комфорт 1008.1 936.8 0.0
ЮЗ 3 н/о н/о +22.7 +5.5 33 +23 +23 комфорт 1007.4 936.2 0.0
ЮЗ 2 н/о ливневой дождь {осадки} н/о +24.7 +5.6 29 +24 +24 комфорт 1005.8 935.2 0.0
ЮЗ 2 н/о в посл. час осадки н/о +24.4 +5.9 30 +24 +24 комфорт 1004.9 934.3 0.0
ЮЗ 2 н/о н/о +23.3 +5.1 31 +23 +23 комфорт 1004.8 934.0 0.0
ЮЗ 3 н/о {осадки} н/о +22.0 +6.3 36 +23 +23 комфорт 1004.7 933.6 0.0
З 1 н/о н/о +19.4 +7.9 47 +21 +21 комфорт 1004.9 933.2
штиль 0 н/о н/о +18.6 +6.9 46 +19 +19 тепло 1005.6 933.6
ЮЗ 4 н/о {осадки} н/о +18.2 +8.2 52 +18 +18 тепло 1006.2 934.1 +10.8 +24.8 0.0
ЮЗ 4 н/о осадки н/о +18.2 +9.1 55 +18 +18 тепло 1007.0 934.9 0.0
ЮЗ 5 н/о ливневой дождь н/о +16.0 +10.8 71 +15 +15 тепло 1009.0 936.3 0.0
ЮЗ 3 н/о осадки {ливн. осадки} н/о +14.5 +11.2 81 +14 +14 тепло 1009.7 936.6 0.1
З 3 н/о осадки н/о +13.9 +11.0 83 +13 +13 тепло 1010.7 937.3 0.6
ЮЗ 2 н/о в посл. час осадки н/о +12.5 +10.4 87 +12 +12 тепло 1011.8 938.0 0.7
Ю 1 н/о {ливн. осадки} н/о +11.5 +9.9 90 +11 +11 тепло 1012.8 938.7 1
СВ 1 н/о н/о +12.6 +8.7 77 +13 +13 тепло 1013.7 939.7
В 2 н/о н/о +11.8 +6.8 71 +11 +11 тепло 1014.8 940.5 0.0
В 1 н/о осадки н/о +10.2 +7.8 85 +10 +10 тепло 1016.7 941.9 2
штиль 0 н/о осадки н/о +9.4 +8.2 92 +9 +9 тепло 1017.3 942.3 1
штиль 0 н/о в посл. час осадки н/о +9.2 +8.1 93 +8 +8 тепло 1017.8 942.7 0.1
штиль 0 н/о {осадки} н/о +9.2 +8.0 92 +8 +8 тепло 1018.4 943.2 +9.1 +20.5 5
штиль 0 н/о н/о +9.7 +8.2 90 +9 +9 тепло 1019.1 944.0
В 1 н/о н/о +10.4 +8.6 89 +10 +10 тепло 1019.1 944.2
СВ 1 н/о н/о +12.1 +8.0 76 +12 +12 тепло 1018.6 944.1
ЮВ 2 н/о н/о +13.1 +7.8 70 +12 +12 тепло 1018.2 944.0
ЮВ 2 н/о н/о +14.3 +9.0 70 +14 +14 тепло 1017.6 943.8
ЮВ 1 н/о н/о +14.8 +7.5 62 +15 +15 тепло 1016.9 943.2
Ю 2 н/о н/о +15.1 +9.0 67 +15 +15 тепло 1016.0 942.5
ЮЗ 2 н/о н/о +15.1 +7.9 62 +15 +15 тепло 1015.8 942.3
ЮЗ 2 н/о н/о +12.9 +8.0 72 +12 +12 тепло 1016.3 942.2
ЮЗ 1 н/о н/о +11.6 +8.0 79 +11 +11 тепло 1017.0 942.5
ЮЗ 1 н/о н/о +10.2 +8.0 86 +10 +10 тепло 1018.1 943.2
ЮЗ 2 н/о н/о +9.4 +7.4 87 +8 +8 тепло 1018.4 943.3 +9.1 +15.9
штиль 0 н/о н/о +9.0 +7.0 87 +8 +8 тепло 1018.6 943.3
штиль 0 н/о н/о +8.2 +6.6 90 +7 +7 тепло 1019.1 943.6
штиль 0 н/о н/о +8.2 +6.6 90 +7 +7 тепло 1019.1 943.6
Ю 1 н/о н/о +7.0 +5.6 91 +6 +6 тепло 1019.6 943.7
ЮЗ 1 н/о н/о +6.8 +5.5 91 +6 +6 тепло 1019.7 943.8
ЮЗ 1 н/о н/о +6.2 +5.1 93 +5 +5 тепло 1020.1 944.0
Ю 1 н/о н/о +6.0 +4.9 93 +5 +5 тепло 1020.3 944.1
штиль 0 н/о н/о +5.9 +4.8 93 +5 +5 тепло 1019.8 943.6
штиль 0 н/о н/о +5.5 +4.5 93 +4 +4 по сезону 1020.0 943.7
ЮЗ 1 н/о н/о +5.5 +4.5 93 +4 +4 по сезону 1020.5 944.2
штиль 0 н/о н/о +5.5 +4.5 93 +4 +4 по сезону 1020.3 944.0
ЮЗ 1 н/о н/о +5.5 +4.4 93 +4 +4 по сезону 1021.2 944.8 +5.0 +9.9
штиль 0 н/о н/о +5.5 +4.5 93 +4 +4 по сезону 1021.2 944.8
ЮЗ 1 н/о н/о +6.5 +5.4 93 +5 +5 тепло 1020.7 944.6
ЮЗ 1 н/о н/о +9.6 +6.3 80 +9 +9 тепло 1019.7 944.5
В 1 н/о н/о +12.9 +6.5 65 +13 +13 тепло 1018.5 944.2
Ю 1 н/о н/о +14.3 +6.9 61 +15 +15 тепло 1017.1 943.3
В 1 н/о н/о +15.7 +6.7 55 +16 +16 тепло 1015.7 942.3
ЮВ 1 н/о н/о +16.8 +8.0 56 +18 +18 тепло 1014.8 941.8
Ю 1 н/о н/о +16.6 +6.6 52 +18 +18 тепло 1014.4 941.3
ЮЗ 3 н/о н/о +13.8 +7.6 66 +13 +13 тепло 1015.1 941.3
ЮЗ 2 н/о н/о +12.1 +7.8 75 +11 +11 тепло 1015.5 941.3
З 1 н/о н/о +10.7 +7.7 82 +10 +10 тепло 1016.0 941.4
ЮЗ 1 н/о н/о +10.0 +7.2 83 +10 +10 тепло 1016.4 941.6 +5.3 +17.2
ЮЗ 1 н/о н/о +8.9 +6.6 85 +8 +8 тепло 1017.2 942.0
штиль 0 н/о н/о +8.2 +6.3 88 +7 +7 тепло 1017.9 942.5
Ю 1 н/о н/о +7.7 +6.0 89 +7 +7 тепло 1018.3 942.7
штиль 0 н/о н/о +7.7 +6.1 90 +7 +7 тепло 1018.5 942.9
штиль 0 н/о н/о +6.8 +5.4 91 +6 +6 тепло 1018.9 943.0
ЮЗ 1 н/о н/о +6.2 +5.0 92 +5 +5 тепло 1019.7 943.6
штиль 0 н/о н/о +5.7 +4.7 93 +5 +5 тепло 1019.7 943.5
штиль 0 н/о н/о +5.5 +4.5 93 +4 +4 по сезону 1019.9 943.6
штиль 0 н/о н/о +6.0 +4.9 93 +5 +5 тепло 1019.6 943.5
штиль 0 н/о н/о +6.1 +4.7 91 +5 +5 тепло 1019.0 942.9
Местоположение метеостанции Майрхофен (Австрия): широта 47.17 долгота 11.85 высота над уровнем моря 633 м.
В архиве по умолчанию представлена погода в Майрхофене за последнюю неделю. Архивные данные за месяц целиком и за предыдущие месяцы, начиная с января 2011 года, Вы можете получить, выбрав интересующий диапазон дат из раскрывающегося списка и нажав кнопку "Найти!".
*Определитесь, кто Вы:
Внимание! Время в таблицах - всемирное. Для получения местного времени необходимо прибавить поправку, которая равна 1 ч.
Смотрите также архив погоды в соседних городах и на ближайших метеорологических станциях:
Партнеры нашего сайта:      
Пояснения к столбцам:
  • Ветер - указаны скорость ветра в м/с - средняя за 10 мин, порывы в срок и между сроками (в фигурных скобках) и направление, откуда дует ветер: С - северный,
  • СВ - северо-восточный, В - восточный, ЮВ - юго-восточный, Ю - южный, ЮЗ - юго-западный, З - западный, СЗ - северо-западный.
  • Видимость - горизонтальная дальность видимости в метрах или километрах. При видимости от 1 до 10 км при отсутствии осадков обычно наблюдается дымка, при ухудшении видимости до 1 км и менее - туман. В сухую погоду видимость может ухудшаться дымом, пылью или мглою.
  • Явления - указаны атмосферные явления, наблюдавшиеся в срок или в последний час перед сроком; фигурными скобками обозначены явления, наблюдавшиеся между сроками (за 1-3 часа до срока); квадратными скобками обозначены град или гололедные отложения с указанием их диаметра в мм.
  • Облачность - указаны через наклонную черту общая и нижняя облачность в баллах и высота нижней границы облаков в метрах; квадратными скобками обозначены формы облаков: Ci - перистые, Cs - перисто-слоистые, Cc - перисто-кучевые, Ac - высококучевые, As - высокослоистые, Sc - слоисто-кучевые, Ns - слоисто-дождевые, Cu - кучевые, Cb - кучево-дождевые. Подробнее классификацию облаков см. в Атласе облаков (PDF).
  • T - Температура воздуха - температура, измеренная на высоте 2 м над землей.
  • Td - Температура точки росы - температура, при понижении до которой содержащийся в воздухе водяной пар достигнет насыщения.
  • f - Относительная влажность воздуха - влажноcть воздуха, измеренная на высоте 2 м над землей.
  • Te - Эффективная температура - температура, которую ощущает одетый по сезону человек в тени. Характеристика душности погоды. При расчете учитывается влияние влажности воздуха и скорости ветра на теплоощущения человека.
  • Tes - Эффективная температура на солнце - температура, которую ощущает человек, с поправкой на солнечный нагрев. Характеристика знойности погоды. Зависит от высоты солнца над горизонтом, облачности и скорости ветра. Ночью, в пасмурную погоду, а также при ветре 12 м/с и более поправка равна нулю.
  • P - Атмосферное давление - приведенное к уровню моря атмосферное давление.
  • Po - Атмосферное давление - измеренное на уровне метеостанции атмосферное давление.
  • Tmin - Минимальная температура - минимум температуры воздуха на высоте 2 м над землей.
  • Tmax - Максимальная температура - максимум температуры воздуха на высоте 2 м над землей.
  • R - Количество осадков - Количество выпавших осадков за период времени, мм. При наведении курсора мыши на число - период времени, за который выпало указанное количество осадков.
  • R24 - Количество осадков - Количество выпавших осадков за 24 часа, мм.
  • S - Снежный покров - Высота снежного покрова, см. При наведении курсора мыши на число - состояние снежного покрова и степень покрытия местности в баллах.